www.pogodaiklimat.ru
Время
(UTC), дата
14 19.09
13 19.09
15 19.09
16 19.09
17 19.09
18 19.09
20 19.09
19 19.09
21 19.09
22 19.09
23 19.09
00 20.09
02 20.09
01 20.09
03 20.09
04 20.09
05 20.09
06 20.09
08 20.09
07 20.09
09 20.09
10 20.09
11 20.09
12 20.09
14 20.09
13 20.09
15 20.09
16 20.09
17 20.09
18 20.09
20 20.09
19 20.09
21 20.09
22 20.09
23 20.09
00 21.09
02 21.09
01 21.09
03 21.09
04 21.09
05 21.09
06 21.09
08 21.09
07 21.09
09 21.09
10 21.09
11 21.09
12 21.09
14 21.09
13 21.09
15 21.09
16 21.09
17 21.09
18 21.09
20 21.09
19 21.09
21 21.09
22 21.09
23 21.09
00 22.09
02 22.09
01 22.09
03 22.09
04 22.09
05 22.09
06 22.09
08 22.09
07 22.09
09 22.09
10 22.09
11 22.09
12 22.09
14 22.09
13 22.09
15 22.09
16 22.09
17 22.09
18 22.09
20 22.09
19 22.09
21 22.09
22 22.09
23 22.09
00 23.09
02 23.09
01 23.09
03 23.09
04 23.09
05 23.09
06 23.09
08 23.09
07 23.09
09 23.09
10 23.09
11 23.09
12 23.09
14 23.09
13 23.09
15 23.09
16 23.09
17 23.09
18 23.09
20 23.09
19 23.09
21 23.09
22 23.09
23 23.09
00 24.09
02 24.09
01 24.09
03 24.09
04 24.09
05 24.09
06 24.09
08 24.09
07 24.09
09 24.09
10 24.09
11 24.09
12 24.09
14 24.09
13 24.09
15 24.09
16 24.09
17 24.09
18 24.09
20 24.09
19 24.09
21 24.09
22 24.09
23 24.09
00 25.09
02 25.09
01 25.09
03 25.09
04 25.09
05 25.09
06 25.09
08 25.09
07 25.09
09 25.09
10 25.09
11 25.09
12 25.09
14 25.09
13 25.09
15 25.09
16 25.09
17 25.09
18 25.09
20 25.09
19 25.09
21 25.09
22 25.09
23 25.09
00 26.09
02 26.09
01 26.09
03 26.09
04 26.09
05 26.09
06 26.09
08 26.09
07 26.09
09 26.09
10 26.09
11 26.09
12 26.09
13 26.09
Ветер
(напр.,м/с)
Видим. Явления Облачность Т
(С)
Тd
(С)
f
(%)
Тe
(С)
Тes
(С)
Комфортность P
(гПа)
Po
(гПа)
Тmin
(С)
Tmax
(С)
R
(мм)
R24
(мм)
S
(см)
В 4 45 км 8/0
[Ci sp]
+19.8 +5.7 40 +21 +23 комфорт 1022.4 1020.6
В 5 45 км 8/0
[Ci sp]
+19.5 +6.2 42 +20 +23 тепло 1023.1 1021.3
В 4 45 км 8/0
[Ci sp]
+19.3 +6.3 43 +20 +21 тепло 1021.9 1020.1
В 4 45 км 8/0
[Ci sp]
+18.2 +6.6 47 +18 +19 тепло 1021.4 1019.6
СВ 2 45 км 6/0
[Ci sp]
+17.5 +7.2 51 +18 +18 тепло 1021.2 1019.4
СВ 3 45 км 6/0
[Ci sp]
+15.3 +9.4 68 +15 +15 тепло 1021.4 1019.6 +7.0 +20.0
СВ 3 45 км 9/0
[Ci fib]
+12.2 +8.6 79 +11 +11 тепло 1021.6 1019.8
СВ 3 45 км 8/0
[Ci fib]
+13.7 +8.8 72 +13 +13 тепло 1021.5 1019.7
СВ 3 45 км 9/0
[Ci fib]
+11.1 +8.4 83 +9 +9 тепло 1021.7 1019.9
СВ 4 40 км 4/0
[Ci fib]
+9.9 +7.5 85 +7 +7 тепло 1021.9 1020.0
СВ 3 40 км 4/0
[Ci fib]
+9.3 +7.0 86 +7 +7 тепло 1021.9 1020.0
В 3 40 км 3/0
[Ci fib]
+9.0 +6.4 84 +7 +7 прохладно 1021.7 1019.8
В 1-2
{2}
40 км ясно +8.1 +5.4 83 +7 +7 по сезону 1021.3 1019.4
СВ 2 40 км 3/0
[Ci fib]
+9.1 +6.0 81 +7 +7 по сезону 1021.5 1019.6
В 1 40 км ясно +7.3 +5.5 88 +6 +6 прохладно 1021.0 1019.1
С 1 30 км местами туман поземный 1/0
[Ci fib]
+5.7 +5.0 95 +4 +4 прохладно 1021.1 1019.2
С 1 35 км 1/0
[Ac trans Ci fib]
+6.0 +4.9 93 +5 +5 по сезону 1021.1 1019.2
СВ 1 40 км 1/0
[Ci fib]
+7.1 +4.9 86 +6 +6 по сезону 1021.3 1019.4 +4.9 +15.5
В 3 45 км 1/0
[Ci fib]
+13.2 +7.4 68 +12 +14 тепло 1021.6 1019.8
В 2 45 км 1/0
[Ci fib]
+10.0 +6.2 77 +9 +10 тепло 1021.4 1019.5
В 3 45 км ясно +16.2 +7.6 57 +16 +20 тепло 1021.4 1019.6
В 3 45 км 1/0
[Ci fib]
+18.3 +7.2 48 +19 +24 тепло 1021.1 1019.3
В 4 50 км 1/0
[Ci fib]
+20.1 +5.6 39 +21 +26 комфорт 1020.7 1018.9
В 4 60 км 1/0
[Ci fib]
+20.9 +6.0 38 +22 +27 комфорт 1020.4 1018.6
В 3-6
{6}
60 км ясно +21.9 +4.5 32 +22 +26 комфорт 1019.8 1018.0
В 4-6
{7}
60 км ясно +21.6 +5.9 36 +22 +26 комфорт 1019.9 1018.1
В 3 60 км ясно +21.9 +5.0 33 +22 +24 комфорт 1019.4 1017.6
СВ 3-5
{5}
60 км ясно +21.0 +5.6 37 +22 +23 комфорт 1019.5 1017.7
СВ 3 60 км 1/0
[Ci fib]
+18.8 +8.2 50 +19 +19 тепло 1019.7 1017.9
СВ 3 50 км ясно +16.0 +7.9 59 +16 +16 тепло 1020.0 1018.2 +7.2 +22.2
СВ 1-2
{3}
40 км ясно +11.7 +8.3 80 +12 +12 по сезону 1020.1 1018.3
СВ 3-3
{5}
45 км ясно +14.1 +8.0 67 +13 +13 тепло 1020.1 1018.3
СВ 4 40 км ясно +12.8 +10.3 85 +11 +11 по сезону 1020.3 1018.5
СВ 3-6
{6}
30 км ясно +12.2 +10.9 92 +11 +11 по сезону 1020.4 1018.6
СВ 2-3
{4}
15 км ясно +10.8 +10.3 97 +9 +9 по сезону 1020.1 1018.3
ЮВ 1 8000 м местами туман поземный ясно +11.2 +11.2 100 +11 +11 по сезону 1020.1 1018.3
В 1-1
{3}
800 м туман ясно +9.4 +9.4 100 +9 +9 по сезону 1019.7 1017.8
В 1-2
{2}
500 м туман ясно +10.3 +10.2 99 +10 +10 тепло 1020.0 1018.2
СВ 1 8000 м в посл. час туман ясно +8.0 +7.8 99 +7 +7 прохладно 1019.4 1017.5
СВ 2-2
{2}
8000 м туман на расстоянии ясно +7.9 +7.7 99 +6 +6 по сезону 1019.3 1017.4
СВ 2 15 км туман на расстоянии 1/0
[Ci fib]
+7.7 +7.4 98 +5 +5 по сезону 1019.4 1017.5
В 1 20 км туман на расстоянии 1/0
[Ci fib]
+8.0 +7.3 95 +7 +7 по сезону 1019.5 1017.6 +7.3 +15.9 0.0
В 1 35 км 1/0
[Ci fib]
+14.4 +9.2 71 +15 +18 тепло 1019.1 1017.3
В 1 30 км 1/0
[Ci fib]
+10.7 +7.9 83 +10 +12 тепло 1019.4 1017.6
ЮВ 2 40 км 1/0
[Ci fib]
+16.8 +9.1 60 +17 +22 тепло 1018.9 1017.1
ЮВ 3 45 км 1/0
[Ci fib]
+19.7 +9.5 52 +21 +26 комфорт 1018.3 1016.5
ЮВ 3 45 км 1/0
[Ci fib]
+21.3 +8.4 44 +22 +28 комфорт 1018.1 1016.3
Ю 3 40 км 1/0
[Ci fib]
+22.1 +7.5 39 +23 +29 комфорт 1017.7 1015.9
Ю 2 40 км 1/0
[Ci fib]
+23.1 +7.7 37 +24 +28 комфорт 1016.6 1014.8
ЮВ 3 40 км 1/0
[Ci fib]
+22.4 +7.5 38 +23 +28 комфорт 1017.0 1015.2
Ю 2 40 км 1/0
[Ci fib]
+23.4 +7.9 37 +24 +27 комфорт 1016.2 1014.4
В 2 40 км 1/0
[Ci fib]
+22.2 +7.6 39 +23 +24 комфорт 1015.7 1013.9
В 2 40 км 1/0
[Ci fib]
+19.5 +8.9 50 +21 +21 комфорт 1015.5 1013.7
С 1 40 км 1/0
[Ci fib]
+15.7 +10.9 73 +16 +16 тепло 1015.3 1013.5 +8.0 +23.9
З 1-1
{3}
35 км ясно +13.2 +9.9 80 +13 +13 по сезону 1015.1 1013.3
СВ 1-2
{2}
35 км ясно +14.0 +9.7 75 +14 +14 тепло 1015.3 1013.5
С 1 35 км ясно +13.7 +9.6 76 +14 +14 тепло 1014.9 1013.1
СВ 1-1
{2}
35 км ясно +11.0 +9.0 87 +11 +11 по сезону 1014.6 1012.8
штиль 0-1
{2}
35 км ясно +10.5 +8.6 88 +10 +10 по сезону 1014.2 1012.4
В 1 30 км туман на расстоянии ясно +10.7 +8.9 89 +10 +10 по сезону 1013.8 1012.0
СВ 1-2
{2}
25 км туман на расстоянии ясно +9.4 +8.8 96 +9 +9 по сезону 1012.7 1010.9
В 1-2
{2}
30 км туман на расстоянии ясно +10.3 +8.9 91 +10 +10 тепло 1013.2 1011.4
СВ 1 25 км туман на расстоянии ясно +8.9 +8.3 96 +8 +8 по сезону 1012.4 1010.6
СВ 2-2
{2}
25 км туман на расстоянии ясно +8.9 +8.3 96 +7 +7 по сезону 1012.0 1010.2
С 1-1
{2}
25 км туман на расстоянии ясно +7.6 +7.0 96 +7 +7 по сезону 1012.0 1010.1
В 2 25 км туман на расстоянии ясно +8.6 +7.4 92 +7 +7 по сезону 1011.7 1009.9 +7.3 +15.8
Ю 2-3
{3}
25 км ясно +15.2 +10.2 72 +15 +18 тепло 1011.4 1009.6
В 1-2
{2}
25 км ясно +12.6 +9.1 79 +13 +14 тепло 1011.6 1009.8
Ю 1 30 км ясно +18.3 +10.9 62 +20 +25 тепло 1011.1 1009.3
З 1-2
{2}
30 км ясно +20.7 +10.3 51 +24 +31 комфорт 1010.7 1008.9
ЮЗ 2-3
{4}
30 км ясно +22.6 +10.9 48 +25 +32 комфорт 1010.4 1008.6
ЮЗ 3 30 км ясно +23.2 +9.6 42 +25 +31 комфорт 1009.8 1008.1
ЮЗ 4-6
{6}
30 км ясно +24.0 +11.1 44 +25 +28 комфорт 1008.9 1007.2
З 3-4
{5}
30 км ясно +23.9 +9.5 40 +25 +30 комфорт 1009.3 1007.6
З 3 40 км ясно +23.4 +10.6 44 +25 +27 комфорт 1008.4 1006.7
ЮЗ 2-3
{5}
40 км ясно +22.6 +11.6 50 +25 +26 комфорт 1007.7 1006.0
З 2-3
{3}
40 км ясно +19.9 +11.9 60 +22 +22 комфорт 1007.4 1005.6
СЗ 2 30 км ясно +15.2 +11.9 81 +15 +15 тепло 1007.2 1005.4 +8.7 +24.4
СВ 1-2
{2}
30 км туман на расстоянии ясно +13.4 +11.8 90 +14 +14 тепло 1006.9 1005.1
В 1-2
{2}
30 км местами туман поземный ясно +14.9 +12.2 84 +15 +15 тепло 1007.1 1005.3
С 1 20 км туман на расстоянии ясно +12.8 +11.7 93 +13 +13 по сезону 1006.6 1004.8
СВ 1-1
{2}
20 км туман на расстоянии ясно +11.9 +11.3 96 +12 +12 по сезону 1006.5 1004.7
штиль 0-1
{1}
15 км туман на расстоянии ясно +10.9 +10.6 98 +10 +10 по сезону 1006.0 1004.2
СВ 1 15 км туман на расстоянии ясно +10.6 +10.4 99 +10 +10 по сезону 1005.5 1003.7
СВ 1-2
{2}
12 км туман на расстоянии ясно +9.5 +9.4 99 +9 +9 по сезону 1005.1 1003.3
штиль 0-1
{1}
12 км туман на расстоянии ясно +9.6 +9.5 99 +9 +9 тепло 1005.4 1003.6
СВ 1 13 км туман на расстоянии ясно +9.1 +9.0 99 +8 +8 по сезону 1004.7 1002.9
СВ 1-1
{1}
7000 м туман на расстоянии ясно +8.2 +8.0 99 +7 +7 по сезону 1004.5 1002.7
штиль 0 1200 м туман на расстоянии 3/0
[Ci sp]
+7.2 +6.7 97 +6 +6 по сезону 1004.5 1002.7
ЮВ 1 6000 м туман на расстоянии 3/0
[Ci sp]
+8.9 +8.7 99 +8 +8 по сезону 1004.8 1003.0 +7.2 +15.7
Ю 2 15 км 3/0
[Ac trans Ci sp]
+16.9 +11.9 72 +17 +19 тепло 1004.8 1003.0
ЮВ 1 15 км 3/0
[Ci sp]
+12.3 +10.4 88 +12 +13 тепло 1004.7 1002.9
ЮЗ 3 18 км 6/0
[Ac trans]
+18.4 +10.1 58 +19 +21 тепло 1004.9 1003.1
ЮЗ 3 15 км 9/0
[Ac trans]
+18.8 +10.5 59 +20 +22 тепло 1004.9 1003.1
ЮЗ 4 18 км 8/0
[Ac trans Ci sp]
+21.4 +10.5 50 +23 +26 комфорт 1004.6 1002.9
ЮЗ 5 18 км 1/1 1500 м
[Sc Ac trans Ci fib]
+22.2 +9.9 46 +24 +27 комфорт 1004.2 1002.5
ЮЗ 6 18 км 3/3 1500 м
[Sc Ac trans]
+22.5 +9.5 44 +24 +25 комфорт 1003.6 1001.9
ЮЗ 7 15 км 1/1 2000 м
[Sc]
+22.9 +10.1 44 +25 +26 комфорт 1003.8 1002.1
ЮЗ 5 18 км 1/0
[Ac trans]
+22.7 +9.7 44 +24 +25 комфорт 1003.2 1001.5
ЮЗ 4 35 км 1/0
[Ac trans Ci fib]
+22.1 +10.5 48 +24 +24 комфорт 1002.6 1000.9
Ю 2 35 км 6/0
[Ci fib]
+19.9 +10.5 55 +22 +22 комфорт 1002.3 1000.5
Ю 2 35 км 6/0
[Ci fib]
+16.8 +11.8 72 +17 +17 тепло 1002.2 1000.4 +8.9 +23.4
Ю 3 30 км 9/0
[Ac trans Ci sp]
+16.4 +11.2 71 +16 +16 тепло 1002.0 1000.2
ЮВ 2 30 км 8/0
[Ci fib]
+16.4 +11.2 71 +17 +17 тепло 1002.0 1000.2
Ю 3 35 км 9/0
[Ac trans Ci sp]
+17.8 +11.4 66 +18 +18 тепло 1001.6 999.8
ЮВ 3 35 км 9/0
[Ac As Ci sp]
+17.4 +11.2 67 +17 +17 тепло 1001.1 999.3
ЮВ 1 35 км 9/1 1500 м
[Sc Ac As Ci sp]
+16.5 +11.6 73 +17 +17 тепло 1000.6 998.8
ЮВ 3 35 км 9/0
[Ac As Ci sp]
+14.9 +11.2 79 +14 +14 тепло 999.9 998.1
ЮВ 5 35 км 5/0
[Ac As Ci sp]
+15.4 +10.2 71 +14 +14 тепло 998.5 996.7
ЮВ 5 35 км 4/0
[Ac As Ci sp]
+16.3 +10.7 69 +15 +15 тепло 999.1 997.3
ЮВ 5 35 км 6/0
[Ac As Ci fib]
+15.1 +10.2 73 +14 +14 тепло 998.1 996.3
Ю 3 35 км слаб. дождь 9/9 840 м
[Sc]
+16.3 +11.4 73 +16 +16 тепло 998.0 996.2
ЮЗ 5 25 км слаб. дождь 10/9 570 м
[Cu Sc]
+15.7 +12.8 83 +15 +15 тепло 998.4 996.6
ЮЗ 5 30 км в посл. час дождь 4/4 300 м
[Cu Sc Ac trans Ci fib]
+15.4 +12.9 85 +14 +14 тепло 999.0 997.2 +14.7 +18.2 0.1
ЮЗ 7 45 км 3/3 540 м
[Cu Sc]
+15.5 +9.8 69 +14 +14 тепло 1001.0 999.2
ЮЗ 8 45 км 3/3 540 м
[Cu Sc]
+15.8 +12.3 80 +14 +14 тепло 1000.1 998.3
ЮЗ 7 45 км 4/4 600 м
[Cu med, cong]
+15.6 +9.7 68 +14 +15 по сезону 1002.1 1000.3
ЮЗ 7 45 км 6/6 800 м
[Cu med, cong]
+15.7 +9.0 64 +14 +15 тепло 1002.8 1001.0
ЮЗ 6 45 км 6/6 900 м
[Cu hum]
+16.7 +9.0 60 +16 +17 тепло 1003.3 1001.5
ЮЗ 9 45 км 6/6 1050 м
[Cu med, cong]
+17.5 +8.5 55 +16 +17 по сезону 1003.4 1001.6
Ю 6 50 км 5/3 1350 м
[Cu hum Ci sp]
+18.3 +7.2 48 +18 +19 тепло 1003.2 1001.4
ЮЗ 7 50 км 6/4 1140 м
[Cu med, cong Ci sp]
+17.7 +7.9 53 +17 +18 тепло 1003.5 1001.7
ЮЗ 6 50 км 5/1 1440 м
[Cu hum Ci sp]
+17.6 +6.7 49 +17 +18 тепло 1003.0 1001.2
ЮЗ 6 50 км 6/0
[Ci sp]
+17.4 +6.6 49 +17 +17 тепло 1002.8 1001.0
Ю 4 50 км 8/0
[Ci sp]
+16.8 +6.3 50 +16 +16 тепло 1002.6 1000.8
Ю 3 50 км 9/0
[Ac trans]
+16.2 +6.8 54 +16 +16 тепло 1002.6 1000.8 +15.0 +18.5
ЮВ 3 45 км 9/0
[Ac trans Ci fib]
+12.8 +6.9 67 +12 +12 по сезону 1001.9 1000.1
ЮВ 3 50 км 9/0
[Ac trans Ci fib]
+15.1 +7.1 59 +15 +15 тепло 1002.3 1000.5
В 2 45 км 9/0
[Ac trans]
+12.7 +7.2 69 +12 +12 по сезону 1001.3 999.5
В 3 45 км 9/0
[Ac As]
+13.4 +6.9 65 +12 +12 тепло 1000.4 998.6
ЮВ 5 45 км 9/0
[Ac As]
+13.5 +6.8 64 +12 +12 тепло 999.7 997.9
ЮВ 4 45 км 9/0
[Ac As]
+13.6 +6.9 64 +12 +12 тепло 998.7 996.9
ЮВ 4 50 км 9/5 1440 м
[Sc Ac As]
+13.6 +7.3 66 +12 +12 тепло 997.2 995.4
В 3 50 км 9/1 1500 м
[Sc Ac As]
+13.3 +6.8 65 +12 +12 тепло 998.0 996.2
ЮВ 6 55 км 9/4 1500 м
[Sc Ac As]
+14.2 +9.4 73 +12 +12 тепло 996.6 994.8
ЮВ 4 55 км 9/8 1200 м
[Sc Ac As]
+13.9 +10.1 78 +12 +12 тепло 996.1 994.3
ЮВ 2 50 км 9/9 1320 м
[Sc]
+13.8 +10.4 80 +13 +13 тепло 995.7 993.9
ЮВ 4 50 км 10/3 1000 м
[Sc Ac As]
+13.8 +10.6 81 +12 +12 тепло 995.8 994.0 +11.7 +16.2
ЮЗ 1 45 км в посл. час дождь 10/6 700 м
[Sc Ac As]
+13.6 +9.9 78 +14 +14 тепло 995.8 994.0
Ю 5 25 км слаб. дождь 10/9 500 м
[Sc]
+13.4 +11.2 87 +11 +11 тепло 995.8 994.0
ЮЗ 4 45 км {дождь} 9/9 300 м
[Cu Sc]
+13.7 +9.5 76 +12 +12 по сезону 996.5 994.7 0.0
ЮЗ 5 45 км 9/9 600 м
[Cu Sc]
+13.5 +8.8 73 +12 +12 по сезону 996.5 994.7
ЮЗ 4 45 км 9/9 600 м
[Cu Sc]
+14.4 +9.0 70 +13 +14 тепло 996.5 994.7
З 4 45 км {дождь} 9/5 720 м
[Cu Sc Ci sp]
+15.0 +8.3 64 +14 +16 по сезону 996.2 994.4
ЮЗ 4 50 км 8/3 1050 м
[Cu hum Ci sp]
+16.5 +6.6 52 +16 +17 по сезону 996.2 994.4
ЮЗ 5 45 км 9/4 800 м
[Cu med, cong Ci sp]
+15.9 +7.6 58 +15 +16 по сезону 996.2 994.4
З 5 50 км 4/1 1200 м
[Cu hum Ci sp]
+15.9 +4.6 47 +15 +16 по сезону 996.1 994.3
З 4 50 км 4/1 1200 м
[Sc diur, vesp Ac trans Ci sp]
+15.2 +4.5 49 +14 +15 по сезону 996.4 994.6
З 2 50 км 6/1 1350 м
[Sc diur, vesp Ac As Ci sp]
+13.7 +4.9 55 +13 +13 по сезону 996.7 994.9
ЮЗ 2 50 км 4/0
[Ac trans Ci sp]
+11.9 +5.0 63 +11 +11 по сезону 996.9 995.1 +11.1 +16.5 0.0
З 1 50 км 5/0
[Ac trans Ci sp]
+7.7 +5.5 86 +7 +7 прохладно 997.1 995.3
СЗ 1 50 км 5/0
[Ac trans Ci sp]
+8.8 +6.0 83 +8 +8 по сезону 996.7 994.9
С 1 45 км 4/0
[Ac trans Ci sp]
+7.3 +5.3 87 +6 +6 холодно 996.6 994.8
СВ 1 40 км 5/0
[Ac trans Ci sp]
+6.5 +5.3 92 +5 +5 прохладно 996.7 994.9
штиль 0 35 км 6/0
[Ac trans]
+6.9 +5.9 93 +6 +6 по сезону 996.9 995.1
СВ 1 35 км 8/0
[Ac trans]
+7.2 +5.8 91 +6 +6 по сезону 996.7 994.9
СВ 1 35 км 8/0
[Ac trans]
+7.3 +5.6 89 +6 +6 по сезону 996.8 995.0
СВ 2 35 км 8/0
[Ac trans]
+7.6 +5.5 87 +5 +5 по сезону 996.8 995.0
СВ 1 35 км туман на расстоянии 6/0
[Ac trans Ci sp]
+6.4 +5.4 93 +5 +5 прохладно 997.1 995.3
СВ 1 30 км туман на расстоянии 6/0
[Ac trans Ci sp]
+5.5 +4.9 96 +4 +4 по сезону 997.0 995.2
СВ 1 30 км местами туман поземный 9/0
[Ac trans Ci fib]
+5.6 +4.9 95 +4 +4 по сезону 997.0 995.2
СВ 2 30 км 9/0
[Ac As]
+6.6 +5.0 90 +4 +4 прохладно 997.5 995.7 +4.5 +11.8
Ю 1 35 км 10/1 2000 м
[Sc Ac As]
+9.9 +6.9 82 +9 +10 тепло 998.1 996.3
В 1 35 км 10/3 2000 м
[Sc Ac As]
+7.6 +6.0 90 +7 +7 тепло 997.8 996.0
С 1 35 км 10/1 2000 м
[Sc Ac As]
+10.9 +7.0 77 +11 +12 по сезону 998.2 996.4
СЗ 1 35 км 9/0
[Ac As]
+12.1 +6.9 70 +12 +15 тепло 998.2 996.4
СЗ 2 45 км 9/0
[Ac As]
+12.9 +6.7 66 +12 +15 тепло 998.2 996.4
СЗ 4 35 км 9/0
[Ac As]
+13.2 +7.6 69 +12 +13 по сезону 997.9 996.1
СЗ 3 35 км 9/0
[Ac As]
+13.7 +7.3 65 +13 +14 по сезону 997.9 996.1
Местоположение метеостанции Гамбург (Германия): широта 53.63 долгота 10.00 высота над уровнем моря 16 м.
В архиве по умолчанию представлена погода в Гамбурге за последнюю неделю. Архивные данные за месяц целиком и за предыдущие месяцы, начиная с января 2011 года, Вы можете получить, выбрав интересующий диапазон дат из раскрывающегося списка и нажав кнопку "Найти!".
*Определитесь, кто Вы:
Внимание! Время в таблицах - всемирное. Для получения местного времени необходимо прибавить поправку, которая равна 1 ч.
Смотрите также архив погоды в соседних городах и на ближайших метеорологических станциях:
Партнеры нашего сайта:      
Пояснения к столбцам:
  • Ветер - указаны скорость ветра в м/с - средняя за 10 мин, порывы в срок и между сроками (в фигурных скобках) и направление, откуда дует ветер: С - северный,
  • СВ - северо-восточный, В - восточный, ЮВ - юго-восточный, Ю - южный, ЮЗ - юго-западный, З - западный, СЗ - северо-западный.
  • Видимость - горизонтальная дальность видимости в метрах или километрах. При видимости от 1 до 10 км при отсутствии осадков обычно наблюдается дымка, при ухудшении видимости до 1 км и менее - туман. В сухую погоду видимость может ухудшаться дымом, пылью или мглою.
  • Явления - указаны атмосферные явления, наблюдавшиеся в срок или в последний час перед сроком; фигурными скобками обозначены явления, наблюдавшиеся между сроками (за 1-3 часа до срока); квадратными скобками обозначены град или гололедные отложения с указанием их диаметра в мм.
  • Облачность - указаны через наклонную черту общая и нижняя облачность в баллах и высота нижней границы облаков в метрах; квадратными скобками обозначены формы облаков: Ci - перистые, Cs - перисто-слоистые, Cc - перисто-кучевые, Ac - высококучевые, As - высокослоистые, Sc - слоисто-кучевые, Ns - слоисто-дождевые, Cu - кучевые, Cb - кучево-дождевые. Подробнее классификацию облаков см. в Атласе облаков (PDF).
  • T - Температура воздуха - температура, измеренная на высоте 2 м над землей.
  • Td - Температура точки росы - температура, при понижении до которой содержащийся в воздухе водяной пар достигнет насыщения.
  • f - Относительная влажность воздуха - влажноcть воздуха, измеренная на высоте 2 м над землей.
  • Te - Эффективная температура - температура, которую ощущает одетый по сезону человек в тени. Характеристика душности погоды. При расчете учитывается влияние влажности воздуха и скорости ветра на теплоощущения человека.
  • Tes - Эффективная температура на солнце - температура, которую ощущает человек, с поправкой на солнечный нагрев. Характеристика знойности погоды. Зависит от высоты солнца над горизонтом, облачности и скорости ветра. Ночью, в пасмурную погоду, а также при ветре 12 м/с и более поправка равна нулю.
  • P - Атмосферное давление - приведенное к уровню моря атмосферное давление.
  • Po - Атмосферное давление - измеренное на уровне метеостанции атмосферное давление.
  • Tmin - Минимальная температура - минимум температуры воздуха на высоте 2 м над землей.
  • Tmax - Максимальная температура - максимум температуры воздуха на высоте 2 м над землей.
  • R - Количество осадков - Количество выпавших осадков за период времени, мм. При наведении курсора мыши на число - период времени, за который выпало указанное количество осадков.
  • R24 - Количество осадков - Количество выпавших осадков за 24 часа, мм.
  • S - Снежный покров - Высота снежного покрова, см. При наведении курсора мыши на число - состояние снежного покрова и степень покрытия местности в баллах.